Location: Copper Mountain Observatory
(34.1350°N, 116.3120°W)
Time: 21:51:01
(UTC-07:00)

Daily predictions for brighter satellites

Satellite Brightness Start Highest point End
(mag) Time Altitude Azimuth Time Altitude Azimuth Time Altitude Azimuth
Milstar 3 4.5 20:02:33 10° SW 20:15:46 37° SSE 20:23:32 10° E
Cosmos 1862 Rocket 4.4 20:14:49 10° NNE 20:18:52 32° ENE 20:22:53 10° SE
Cosmos 990 Rocket 4.4 20:16:25 10° S 20:21:15 42° ESE 20:26:09 10° NNE
H-2A R/B 4.0 20:18:19 10° S 20:22:05 44° W 20:25:52 10° NNW
GPS 2-04 Rocket1 2.4 20:19:44 10° WSW 20:23:31 84° SSE 20:27:07 10° E
Cosmos 1315 Rocket 2.8 20:22:10 10° S 20:26:07 69° E 20:30:11 10° NNE
Helios 1A 4.2 20:23:19 10° SE 20:26:45 25° ENE 20:30:13 10° NNE
ISS -3.2 20:26:30 10° SSW 20:29:28 34° SE 20:32:27 10° ENE
Meteor 2-10 Rocket 3.9 20:25:28 10° N 20:31:15 62° E 20:36:57 10° SSE
Cosmos 1513 Rocket 4.4 20:25:43 10° N 20:31:47 84° E 20:37:53 10° S
Cosmos 2082 Rocket 2.3 20:26:54 10° NNW 20:32:35 85° WSW 20:38:15 10° SSE
In-Cosmos 22 Rocket 4.3 20:27:26 10° S 20:33:08 75° E 20:38:57 10° NNE
COSMOS 2487 2.5 20:31:33 10° N 20:35:04 65° ENE 20:38:35 10° SSE
CENTAUR R/B 3.4 20:31:16 10° SSE 20:35:39 22° ESE 20:40:24 10° ENE
Resurs 1-3 4.1 20:38:14 10° S 20:42:33 62° W 20:46:54 10° NNW
COSMOS 2455 3.1 20:37:08 10° S 20:42:47 45° ESE 20:48:28 10° NE
CZ-2D R/B 4.4 20:39:26 10° S 20:43:09 45° W 20:46:54 10° NNW
Cosmos 1833 Rocket 3.0 20:40:10 10° NNW 20:45:47 68° WSW 20:51:20 10° S
H-2A R/B 4.2 20:45:26 10° E 20:47:02 11° ENE 20:48:39 10° NE
Tiangong 2 3.2 20:46:35 10° NW 20:49:10 22° NNE 20:51:46 10° ENE
Cosmos 1892 2.7 20:46:21 10° S 20:50:09 61° E 20:53:58 10° NNE
Cosmos 1470 Rocket 4.2 20:47:53 10° SSW 20:52:18 59° W 20:56:44 10° N
Cosmos 1937 Rocket 3.7 20:50:27 10° SSW 20:55:34 74° WNW 21:00:43 10° NNE
Meteor 1-29 3.2 20:52:26 10° NNE 20:55:50 48° E 20:59:12 10° S
USA 186 3.3 20:55:26 10° SSW 20:57:38 27° W 21:00:01 10° NW
Cosmos 2344 4.3 20:52:50 10° SSE 20:59:16 29° ESE 21:05:47 10° NE
Cosmos 2150 Rocket 4.3 20:54:07 10° SSW 20:59:29 72° WNW 21:04:49 10° NNE
OAO 2 Rocket 3.3 20:59:39 10° W 21:04:40 67° SSW 21:07:50 22° ESE
Spot 1 4.3 21:02:18 16° SSE 21:06:00 66° ENE 21:10:54 10° N
Lacrosse 5 rocket 0.9 21:02:56 10° SSW 21:06:26 57° SE 21:09:59 10° NE
Cosmos 1939 Rocket 3.1 21:03:14 10° S 21:07:21 74° WSW 21:11:30 10° NNW
Cosmos 1943 Rocket 2.8 21:05:37 13° SSE 21:09:52 32° ESE 21:14:46 10° NE
CZ-4B DEB 2.6 21:09:43 33° SE 21:10:48 59° ENE 21:13:42 10° N
Cosmos 1869 Rocket 3.8 21:07:55 18° SSE 21:10:52 47° E 21:15:03 10° NNE
Cosmos 1933 4.5 21:08:46 10° NNW 21:12:35 42° W 21:16:22 10° SSW
Cosmos 1346 Rocket 2.7 21:11:38 10° N 21:15:36 80° E 21:18:00 23° SSE
Cosmos 2221 Rocket 4.1 21:17:26 10° N 21:21:37 40° E 21:23:02 31° ESE
Cosmos 2369 Rocket 2.1 21:18:19 10° SSW 21:23:56 85° ESE 21:29:39 10° NNE
Cosmos 1606 3.7 21:22:39 10° NNE 21:25:57 28° E 21:26:04 28° E
ERS-1 Rocket 3.0 21:23:22 27° SSE 21:26:03 63° ENE 21:31:02 10° N
Shenzhou-11 Module 3.1 21:24:46 10° NW 21:27:40 37° NNE 21:28:25 31° ENE
Delta 168 4.2 21:25:49 10° SW 21:29:24 29° S 21:29:51 28° SSE
Aurora 2 Rocket 4.3 21:27:47 10° WSW 21:30:36 16° SSW 21:31:03 15° SSW
Cosmos 2084 4.2 21:32:54 10° NNW 21:36:24 32° NE 21:37:00 31° ENE
Cosmos 1634 Rocket 4.0 21:33:34 10° N 21:39:53 84° W 21:44:16 21° S
Helios 1B rocket 4.2 21:36:35 10° N 21:40:15 32° WNW 21:43:54 10° SW
SAR-Lupe-4 4.1 21:41:07 34° SSW 21:42:21 53° WSW 21:45:52 10° NNW
SPOT 1/Viking Rocket 4.2 21:43:29 34° E 21:44:38 38° ENE 21:49:24 10° N
Hubble Space Telescope 2.9 21:44:26 10° WSW 21:46:15 15° SSW 21:46:15 15° SSW
YAOGAN 6 4.4 21:44:57 16° SSW 21:47:11 29° W 21:50:28 10° NW
Nadezhda 4 Rocket 4.4 21:48:55 36° ESE 21:50:13 41° E 21:55:57 10° NNE
Cosmos 1782 2.6 21:46:21 10° N 21:50:20 72° E 21:50:37 68° ESE
Meteor 2-6 Rocket 4.3 21:45:42 10° N 21:51:37 66° E 21:53:40 41° SSE
Lacrosse 4 Rocket 3.3 21:48:27 10° N 21:51:44 20° NE 21:52:03 20° ENE
USA 215 3.3 21:51:26 35° ESE 21:54:25 70° NE 22:00:57 10° NW
Cosmos 468 4.5 21:49:35 10° NNW 21:54:50 68° ENE 21:56:02 50° SE
H-2A R/B 4.4 21:57:24 11° NE 21:57:24 11° NE 21:57:49 10° NE
USA 245 4.4 21:54:32 40° SSE 21:56:51 79° ENE 22:03:14 10° N
ATLAS 5 CENTAUR R/B 3.4 21:51:52 10° NNW 21:57:22 34° NE 21:59:24 28° E
MetOp-B 4.2 21:58:54 38° S 22:00:59 75° WSW 22:06:21 10° NNW
Cosmos 1269 Rocket 4.3 21:57:18 10° N 22:02:26 49° ENE 22:03:03 47° E
GPS 2-04 Rocket1 2.8 21:59:41 10° W 22:02:54 60° NW 22:02:54 60° NW
Cosmos 1862 3.5 22:04:58 58° NE 22:04:58 58° NE 22:08:19 10° NNE
H-2A ROCKET BODY 2.9 22:01:19 10° WSW 22:04:51 41° S 22:05:18 41° SSE
Cosmos 372 Rocket 4.0 22:02:49 26° SSW 22:05:43 78° WNW 22:10:52 10° NNE
ISS -1.0 22:03:33 10° W 22:06:01 20° NNW 22:08:28 10° NNE
Cosmos 1125 Rocket 3.9 22:02:37 13° SSW 22:07:19 61° WNW 22:12:31 10° N
ARGOS 3.1 22:06:36 46° S 22:08:14 78° WSW 22:13:37 10° NNW
Landsat 7 4.4 22:08:37 42° ENE 22:08:37 42° ENE 22:13:00 10° N
Cosmos 1656 Rocket 4.0 22:13:09 46° E 22:13:09 46° E 22:17:42 10° NNE
Cosmos 1825 3.2 22:12:50 38° WSW 22:13:28 42° W 22:17:03 10° N
Cosmos 1408 4.0 22:14:52 32° WSW 22:15:36 35° W 22:19:02 10° NNW
Cosmos 2279 Rocket 4.1 22:09:45 10° N 22:16:00 74° W 22:18:18 41° SSW
SL-08 RB Rocket 3.8 22:19:14 65° SW 22:19:39 69° W 22:24:19 10° NNW
Terra 2.6 22:24:15 40° NE 22:24:15 40° NE 22:28:08 10° N
OAO 3 Copernicus 4.4 22:18:57 10° WSW 22:23:12 62° SW 22:23:12 62° SW
CENTAUR R/B 3.3 22:19:57 10° SW 22:25:40 49° NW 22:32:09 10° NNE
H-2A R/B 2.1 22:24:59 67° S 22:25:43 82° WSW 22:31:07 10° NNW
Tiangong 2 3.5 22:23:11 10° WNW 22:24:35 24° WNW 22:24:35 24° WNW
SPOT 5 3.5 22:28:31 47° SW 22:29:35 55° W 22:34:50 10° NNW
Cosmos 1733 Rocket 3.9 22:44:03 47° NW 22:44:03 47° NW 22:47:43 10° N
Lacrosse 5 rocket 4.3 22:44:11 10° WNW 22:45:56 13° NW 22:47:41 10° N
Cosmos 1943 Rocket 3.9 22:48:45 10° WSW 22:53:32 29° WNW 22:58:19 10° N
Milstar 3 3.3 22:50:40 10° WSW 22:58:49 52° SSW 22:58:49 52° SSW
Cosmos 2026 Rocket 4.1 23:10:05 66° NE 23:10:05 66° NE 23:15:30 10° N
SME Rocket 4.1 23:23:01 81° WNW 23:23:01 81° WNW 23:31:06 10° NNW
Cosmos 2251 Rocket 4.4 23:24:25 10° NNW 23:28:00 45° NNW 23:28:00 45° NNW
Cosmos 2297 Rocket 4.2 23:26:34 10° NNE 23:30:03 18° NE 23:30:03 18° NE
Lacrosse 4 Rocket 3.7 23:26:28 10° NW 23:28:23 22° WNW 23:28:23 22° WNW
H-2A R/B 4.3 23:34:31 22° NW 23:34:31 22° NW 23:36:07 10° NNW
ATLAS CENTAUR R/B 4.3 23:42:08 12° NNE 23:42:08 12° NNE 23:42:30 10° NNE
ATLAS 5 CENTAUR R/B 3.5 23:36:22 10° NW 23:40:57 37° W 23:40:57 37° W
Cosmos 1553 Rocket 4.4 23:45:33 10° N 23:50:37 59° N 23:50:37 59° N
